Location: Cantaing
(50.1487°N, 3.1675°E)
Time: 06:06:30
(UTC+00:00)

Cosmos 1484 Rocket - Pass Details

Date: 14 January 2026
Orbit: 439 x 467 km, 97.6° (Epoch: 10 February)

Event Time Altitude Azimuth Distance (km) Brightness Sun altitude
Rises 05:45:54 0° 14° (NNE) 2,451 6.2 -17.8°
Reaches altitude 10° 05:47:56 10° 16° (NNE) 1,578 5.2 -17.5°
Maximum altitude 05:51:18 78° 102° (ESE) 464 2.5 -17.0°
Drops below altitude 10° 05:54:41 10° 190° (S) 1,580 5.2 -16.4°
Sets 05:56:43 0° 192° (SSW) 2,452 6.2 -16.1°
